This demonstration page uses our WeatherBlox Daily Observations layout. Learn more.

Left ArrowRight Arrow

38.88101, -77.10428

Hourly Observations for July 26, 2016

Temp ( °F °C ) Dew Point ( °F °C ) Humidity (%) Winds ( mph kmh ) Pressure ( in mb ) Visibility ( mi km ) Precip ( " mm )
12:52 am 00:52 Partly Cloudy 82 27.8 72 22.2 72 72 NE 8 13 29.91 1013 10 16.0934 0 0
1:52 am 01:52 Mostly Cloudy 81 27.2 73 22.8 77 77 E 7 11 29.91 1013 10 16.0934 0 0
2:52 am 02:52 Mostly Cloudy 80 26.7 73 22.8 79 79 Calm 29.92 1013 10 16.0934 0 0
3:52 am 03:52 Mostly Cloudy 81 27.2 73 22.8 77 77 Calm 29.92 1013 10 16.0934 0 0
4:52 am 04:52 Mostly Cloudy 80 26.7 73 22.8 79 79 ENE 5 7 29.92 1013 10 16.0934 0 0
5:52 am 05:52 Mostly Cloudy 80 26.7 73 22.8 79 79 N 6 9 29.93 1014 10 16.0934 0 0
6:52 am 06:52 Mostly Cloudy 81 27.2 73 22.8 77 77 NNW 3 6 29.95 1014 10 16.0934 0 0
7:52 am 07:52 Mostly Cloudy 83 28.3 73 22.8 72 72 N 7 11 29.96 1015 10 16.0934 0 0
8:52 am 08:52 Mostly Cloudy 87 30.6 72 22.2 61 61 N 9 15 29.97 1015 10 16.0934 0 0
9:52 am 09:52 Mostly Cloudy 89 31.7 72 22.2 57 57 NW 12 19 29.97 1015 10 16.0934 0 0
10:52 am 10:52 Cloudy 91 32.8 73 22.8 56 56 N 7 11 29.96 1015 10 16.0934 0 0
11:52 am 11:52 Cloudy 92 33.3 73 22.8 54 54 NW 8 13 29.97 1015 10 16.0934 0 0
12:52 pm 12:52 Cloudy 93 33.9 73 22.8 52 52 Calm 29.96 1015 10 16.0934 0 0
1:52 pm 13:52 Mostly Cloudy 94 34.4 68 20 43 43 W 8 13 29.95 1014 10 16.0934 0 0
2:52 pm 14:52 Mostly Cloudy 96 35.6 70 21.1 43 43 N 9 15 29.93 1014 10 16.0934 0 0
3:52 pm 15:52 Mostly Cloudy 96 35.6 71 21.7 44 44 NNW 13 20 29.92 1013 10 16.0934 0 0
4:52 pm 16:52 Mostly Cloudy 93 33.9 70 21.1 47 47 NNW 10 17 29.91 1013 10 16.0934 0 0
5:52 pm 17:52 Mostly Cloudy 95 35 65 18.3 37 37 NNW 12 19 29.91 1013 10 16.0934 0 0
6:52 pm 18:52 Mostly Cloudy 92 33.3 65 18.3 41 41 NNW 9 15 29.91 1013 10 16.0934 0 0
7:52 pm 19:52 Mostly Cloudy 91 32.8 64 17.8 41 41 N 7 11 29.92 1013 10 16.0934 0 0
8:52 pm 20:52 Mostly Cloudy 90 32.2 66 18.9 45 45 NNE 5 7 29.93 1013 10 16.0934 0 0
9:52 pm 21:52 Mostly Cloudy 89 31.7 69 20.6 52 52 Calm 29.94 1014 10 16.0934 0 0
10:52 pm 22:52 Cloudy 85 29.4 71 21.7 63 63 SW 8 13 29.93 1014 10 16.0934 0 0
11:52 pm 23:52 Cloudy 85 29.4 72 22.2 65 65 SSW 6 9 29.93 1014 10 16.0934 0 0

Powered by AerisWeather